Location: Napier
(39.4830°S, 176.9170°E)
Time: 06:49:59
(UTC+13:00)

IGS 5A - Pass Details

Date: 24 January 2019
Orbit: 585 x 588 km, 97.7° (Epoch: 03 October)

Event Time Altitude Azimuth Distance (km) Brightness Sun altitude
Rises 23:36:09 0° 166° (SSE) 2,855 7.6 -26.1°
Reaches altitude 10° 23:38:21 10° 163° (SSE) 1,945 6.6 -26.3°
Enters shadow 23:41:15 42° 149° (SSE) 862 4.4 -26.5°
